Regional Weather Roundup
Issued by NWS

Home | Current Version | Previous Version | Text Only | Print | Product List | Glossary Off
Versions: 1 2 3 4 5 6 7 8 9 10 11 12 13 14 15 16 17 18 19 20 21 22 23 24 25 26 27 28 29 30 31 32 33 34 35 36 37 38 39 40 41 42 43 44 45 46 47 48 49 50

000
ASUS45 KBOU 281007
RWRCO

WEATHER ROUNDUP FOR COLORADO
NATIONAL WEATHER SERVICE DENVER/BOULDER CO
400 AM MDT THU AUG 28 2014

NOTE: "FAIR" INDICATES FEW OR NO CLOUDS BELOW 12000 FEET WITH NO
SIGNIFICANT WEATHER AND/OR OBSTRUCTIONS TO VISIBILITY.

COZ001>005-013-030-031-281100-
...NORTHWEST COLORADO...

CITY           SKY/WX    TMP DP  RH WIND       PRES   REMARKS
CRAIG          LGT RAIN  52  49  89 W8        30.28S
HAYDEN         CLOUDY    50  46  87 W7        30.28S
MEEKER         LGT RAIN  52  49  89 W5        30.29S
MOUNT WERNER   NOT AVBL
STEAMBOAT SPGS CLOUDY    49  48  96 CALM      30.28F
WALDEN         CLOUDY    46  43  87 CALM      30.31S
$$

COZ006>008-011-281100-
...WEST CENTRAL VALLEYS...

CITY           SKY/WX    TMP DP  RH WIND       PRES   REMARKS
GRAND JUNCTION MOCLDY    56  54  93 SE6       30.23F
MONTROSE       CLOUDY    54  51  90 SE6       30.30F
EAGLE          CLOUDY    54  50  87 N3        30.30F
RIFLE          CLOUDY    55  52  89 CALM      30.26S
DELTA          RAIN      57  53  88 NE6       30.26S
NUCLA          NOT AVBL
$$

COZ017>023-064>068-281100-
...SOUTHWEST COLORADO...

CITY           SKY/WX    TMP DP  RH WIND       PRES   REMARKS
DURANGO        PTCLDY    43  41  93 NE5       30.31S
CORTEZ         MOCLDY    47  45  93 E5        30.29F
PAGOSA SPRINGS PTCLDY    42  40  94 CALM      30.35F
TELLURIDE      CLOUDY    45  43  93 CALM      30.43S
WOLF CREEK PAS MOCLDY    32  32 100 SW14      30.52F WCI  22
$$

COZ009-010-012-014-032>034-037-058>063-281100-
...CENTRAL COLORADO...

CITY           SKY/WX    TMP DP  RH WIND       PRES   REMARKS
ASPEN          LGT RAIN  49  46  90 N5        30.33S
BUENA VISTA    MOCLDY    50  38  63 NW7       30.30F
COPPER MTN     FOG       37  34  87 W15G21    30.49S VSB 1/4
BERTHOUD PASS  FOG       32  30  93 NW16G25   30.50R VSB<1/4 WCI  21
COTTONWOOD PAS CLOUDY    48  34  57 NW9G21    30.38F
GUNNISON       CLOUDY    48  41  76 CALM      30.36R
KREMMLING      CLOUDY    52  41  66 SW6       30.31S
LEADVILLE      LGT RAIN  41  38  89 N5        30.38F
MONARCH PASS   FOG       34  34 100 W20G26    30.59R VSB<1/4 WCI  22
SALIDA         MOCLDY    52  40  64 CALM      30.35F
SUNLIGHT       RAIN      41  41 100 CALM      30.46F VSB 3/4
WILKERSON PASS NOT AVBL
$$

COZ069>075-281100-
...SAN LUIS VALLEY/SANGRE DE CRISTO MOUNTAINS...

CITY           SKY/WX    TMP DP  RH WIND       PRES   REMARKS
ALAMOSA        CLOUDY    43  39  86 W3        30.31F
LA VETA PASS   NOT AVBL
SAGUACHE       MOCLDY    46  41  81 N3        30.34F
$$

COZ035-036-038>040-281100-
...NORTHERN COLORADO FRONT RANGE...

CITY           SKY/WX    TMP DP  RH WIND       PRES   REMARKS
DENVER INTL AP PTCLDY    55  51  86 S10       30.14F
DMNS CITY PARK   N/A     54  49  85 S6        30.14F
AURORA         MOCLDY    53  51  93 S7        30.16F
FRONT RANGE AP CLEAR     55  52  88 SW6       30.15F
ERIE MUNI ARPT CLEAR     52  50  93 CALM      30.13S
BOULDER MUN AP CLEAR     54  48  82 CALM      30.13S
CENTENNIAL     PTCLDY    51  47  86 S6        30.17F
BROOMFIELD     CLEAR     52  48  87 W6        30.15F
FORT COLLINS   CLEAR     55  52  88 SE6       30.13F
LONGMONT       CLEAR     53  50  90 CALM      30.14S
$$

COZ041-046-047-076>085-087-088-281100-
...PIKES PEAK/PALMER DIVIDE AND SOUTHERN FOOTHILLS...

CITY           SKY/WX    TMP DP  RH WIND       PRES   REMARKS
COLO. SPRINGS  PTCLDY    54  48  80 W8        30.20S
A. F. ACADEMY  CLEAR     47  43  88 N10       30.21S
ELLICOTT       CLEAR     49  48  97 NW5       30.18S
FALCON         CLEAR     51  46  84 N6        30.23S
FORT CARSON    CLEAR     51  47  84 N9        30.17F
LIMON          CLEAR     53  51  93 W7        30.13S
MONUMENT HILL  CLEAR     45  43  93 SW5       30.23S
TRINIDAD       CLEAR     53  44  71 SW10      30.19S
$$

COZ042>045-048>051-090-091-281100-
...NORTHEAST COLORADO...

CITY           SKY/WX    TMP DP  RH WIND       PRES   REMARKS
GREELEY ARPT   CLEAR     54  46  76 SW5       30.11F
AKRON          CLEAR     57  56  96 W9        30.06S
BURLINGTON     MOCLDY    59  57  93 NE3       30.03F
WRAY             N/A    N/A N/A N/A SE5       29.99F
STERLING       CLEAR     63  61  94 NW12      30.02F
HOLYOKE        PTCLDY    59  55  88 W3        29.99F
FORT MORGAN    CLEAR     55  53  93 NW7       30.09F
$$

COZ086-089-092>099-281100-
...SOUTHEAST COLORADO...

CITY           SKY/WX    TMP DP  RH WIND       PRES   REMARKS
PUEBLO         CLEAR     59  49  69 CALM      30.13S
LA JUNTA       CLEAR     59  55  87 W10       30.09R
LAMAR          PTCLDY    62  57  83 NE5       30.02R
SPRINGFIELD      N/A     60  56  86 NW9       30.06R
$$


USA.gov is the U.S. government's official web portal to all federal, state and local government web resources and services.